Regional Weather Roundup
Issued by NWS Northern Indiana

Home | Current Version | Previous Version | Text Only | Print | Product List | Glossary On
Versions: 1 2 3 4 5 6 7 8 9 10 11 12 13 14 15 16 17 18 19 20 21 22 23 24 25 26 27 28 29 30 31 32 33 34 35 36 37 38 39 40 41 42 43 44 45 46 47 48 49 50
000
ASUS43 KIWX 282300
RWRIWX

KIWX WEATHER ROUNDUP
NATIONAL WEATHER SERVICE NORTHERN INDIANA
600 PM EST FRI NOV 28 2014

NOTE: "FAIR" INDICATES FEW OR NO CLOUDS BELOW 12,000 FEET WITH NO
SIGNIFICANT WEATHER AND/OR OBSTRUCTIONS TO VISIBILITY.

* THESE STATIONS ARE NOT UNDER NWS QUALITY CONTROL. THEY ALSO MAY NOT
  REPORT WEATHER SUCH AS PRECIPITATION OR FOG.

INZ001>027-290000-
NORTHERN INDIANA

CITY           SKY/WX    TMP DP  RH WIND       PRES   REMARKS
GARY*          MOCLDY    32  23  69 S16       30.03R WCI  21
VALPARAISO     CLOUDY    30  21  69 S9        30.04R WCI  22
SOUTH BEND     CLOUDY    29  20  69 S15       30.05S WCI  18
GOSHEN         CLOUDY    29  20  69 S14       30.06S WCI  18
ANGOLA*        PTCLDY    27  19  74 SE9       30.08S WCI  17
FORT WAYNE     CLOUDY    30  19  63 SE9       30.10F WCI  22
PERU/GRISSOM   CLOUDY    30  24  78 S15       30.06S WCI  19

$$
INZ028>050-290000-
CENTRAL INDIANA

CITY           SKY/WX    TMP DP  RH WIND       PRES   REMARKS
LAFAYETTE      PTCLDY    33  23  66 S10       30.05R WCI  25
KOKOMO*        CLOUDY    30  21  69 S15       30.07S WCI  19
MUNCIE*        CLOUDY    32  17  54 S12G21    30.08F WCI  23
INDIANAPOLIS   MOCLDY    32  21  64 SE15      30.07F WCI  22

$$
MIZ043>046-050>051-056>058-064>065-071>073-077>080-290000-
SOUTHWEST LOWER MICHIGAN

CITY           SKY/WX    TMP DP  RH WIND       PRES   REMARKS
BATTLE CREEK   CLOUDY    27  18  69 SE9       30.07F WCI  18
BENTON HARBOR  MOCLDY    27  19  72 SE10      30.04F WCI  17
COLDWATER*     CLOUDY    29  21  74 SE7       30.08S WCI  21
HILLSDALE*     CLOUDY    26  21  83 S8        30.08F WCI  17
HOLLAND        CLOUDY    27  18  69 SE10      30.04F WCI  17
GRAND RAPIDS   CLOUDY    26  18  71 SE9       30.05F WCI  17
KALAMAZOO      CLOUDY    27  19  72 SE8G16    30.06F WCI  19
STURGIS*       CLOUDY    27  19  74 SE8       30.06S WCI  18
THREE RIVERS*  CLOUDY    28  20  70 SE8       30.07S WCI  20

$$
OHZ001>008-015>018-024>025-290000-
NORTHWEST OHIO

CITY           SKY/WX    TMP DP  RH WIND       PRES   REMARKS
DEFIANCE       MOCLDY    30  21  69 S8        30.13F WCI  22
FINDLAY        CLOUDY    29  22  75 SE8       30.14F WCI  21
TOLEDO EXPRESS CLOUDY    26  21  81 VRB5      30.15F WCI  20
TOLEDO METCALF CLOUDY    28  21  75 SE9       30.18F WCI  19
LIMA           CLOUDY    31  20  63 S14       30.13F WCI  21

$$
AND FOR LAKE MICHIGAN COASTAL AND OPEN LAKE BUOY OBSERVATIONS

STATION/POSITION TEMP    WIND        PRES    VSBY  WAVE
                 AIR SEA DIR/SP/G                  HT/PER
                 (F)     (DEG/KT/KT) (MB)    (MI)  (FT/S)
CALUMET HARBOR    32     160/  9/ 16 1015.1R
MICHIGAN CITY     30     140/ 15/ 19   N/A
SAINT JOSEPH      28     120/  3/ 11 1017.9R
SOUTH LAKE BUOY   33 42  160/ 21/ 25 1016.7F         6/ 6

$$
&&


USA.gov is the U.S. government's official web portal to all federal, state and local government web resources and services.